[[{"header":{"parameterUnit":"m.s-1","parameterCategory":2,"la1":30.2991,"la2":30.254,"lo1":-89.0895,"lo2":-89.0444,"dy":0.0017,"dx":0.0017,"nx":28,"ny":28,"refTime":"2024-07-02T03:00:00:Z","depth":"0","parameterNumber":2,"parameterNumberName":"U-component_of_CURRENTS"},"data":[0,0,0,0,0,0,0,0,0,0,0,0,0,0,0,0,0,0,0,0,0,0,0,0,0,0,0,0,0,0,0,0,0,0,0,0,0,0,0,0,0,0,0,0,0,0,0,0,0,0,0,0,0,0,0,0,0,0,-0.0982,-0.0983,0,-0.1024,-0.1025,-0.1025,-0.1066,-0.1067,-0.1068,-0.1069,-0.1103,-0.1103,-0.1103,0,0,0,0,0,0,0,0,0,0,0,0,0,-0.0912,-0.0913,-0.0982,-0.0983,-0.0984,-0.1024,-0.1025,-0.1025,-0.1066,-0.1067,-0.1068,-0.1069,-0.1103,-0.1103,-0.1103,0,0,0,0,0,0,0,0,0,0,0,0,0,-0.0942,-0.0913,-0.0982,-0.1013,-0.1016,-0.1024,-0.1025,-0.1025,-0.1065,-0.1067,-0.1068,-0.107,-0.1103,-0.1103,-0.1103,-0.1074,0,0,-0.1103,-0.1103,0,0,0,0,0,0,0,0,-0.0941,-0.0944,-0.1007,-0.1011,-0.1015,-0.1046,-0.1013,-0.1042,-0.1065,-0.1042,-0.1069,-0.107,-0.1085,-0.1087,-0.1085,-0.1075,-0.1077,-0.1103,-0.1103,-0.1103,-0.1103,0,0,0,0,0,0,0,-0.0939,-0.0943,-0.0994,-0.1008,-0.1013,-0.1017,-0.1022,-0.1018,-0.1051,-0.1044,-0.1048,-0.106,-0.1087,-0.1084,-0.1086,-0.1077,-0.1103,-0.1103,-0.1103,-0.1103,-0.1146,-0.1147,0,0,0,0,0,0,-0.0943,-0.0941,-0.0993,-0.0996,-0.0986,-0.1017,-0.1023,-0.103,-0.1051,-0.1057,-0.1059,-0.1062,-0.1084,-0.1086,-0.1087,-0.1097,-0.1103,-0.1103,-0.1103,-0.1145,-0.1147,-0.1148,0,0,0,0,0,0,-0.0941,-0.0947,-0.0991,-0.0973,-0.098,-0.1018,-0.1025,-0.103,-0.1024,-0.1064,-0.1069,-0.1047,-0.1085,-0.1087,-0.1119,-0.1097,-0.1103,-0.1103,-0.1144,-0.1146,-0.1147,-0.1089,0,0,0,0,0,0,-0.0939,-0.0945,-0.0937,-0.0973,-0.0981,-0.0993,-0.1024,-0.103,-0.1032,-0.1036,-0.1055,-0.106,-0.1086,-0.1119,-0.1119,-0.1097,-0.1103,-0.1142,-0.1145,-0.1147,-0.1089,-0.1088,-0.1088,0,0,0,0,0,-0.0936,-0.0932,-0.0936,-0.0942,-0.0973,-0.0993,-0.0996,-0.1025,-0.103,-0.1023,-0.1066,-0.1059,-0.1133,-0.112,-0.1119,-0.1097,-0.1141,-0.1144,-0.1146,-0.109,-0.1089,-0.1088,0,0,0,0,0,0,-0.0892,-0.0937,-0.0942,-0.0949,-0.0965,-0.1002,-0.1003,-0.101,-0.1031,-0.104,-0.1069,-0.1078,-0.1097,-0.1115,-0.11,-0.1124,-0.1136,-0.1138,-0.1093,-0.1092,-0.1091,-0.1069,-0.1103,0,0,0,0,0,-0.0877,-0.0886,-0.0923,-0.0922,-0.0934,-0.0957,-0.0963,-0.0981,-0.1014,-0.1022,-0.1052,-0.1085,-0.1105,-0.1114,-0.1141,-0.1141,-0.114,-0.1133,-0.1132,-0.1131,-0.1118,-0.1139,-0.1137,-0.1156,-0.1156,-0.1156,0,0,-0.0851,-0.0884,-0.0881,-0.0912,-0.093,-0.0942,-0.0964,-0.0975,-0.0984,-0.1022,-0.105,-0.1077,-0.1108,-0.1129,-0.1136,-0.1139,-0.112,-0.1134,-0.1132,-0.112,-0.1141,-0.1139,-0.1137,-0.1158,-0.1158,-0.1157,0,0,-0.083,-0.0841,-0.085,-0.0866,-0.09,-0.0918,-0.0916,-0.0955,-0.0971,-0.0999,-0.1034,-0.1056,-0.1093,-0.1112,-0.1123,-0.1128,-0.1117,-0.1137,-0.1103,-0.1124,-0.1121,-0.1119,-0.1079,-0.1074,-0.1133,-0.1133,-0.1133,0,-0.0806,-0.0819,-0.0849,-0.0869,-0.0878,-0.0905,-0.0908,-0.0925,-0.0971,-0.098,-0.1011,-0.1064,-0.1082,-0.1088,-0.11,-0.1118,-0.1117,-0.1096,-0.1118,-0.1116,-0.1115,-0.1075,-0.107,-0.1131,-0.1131,-0.1131,-0.1132,0,-0.0797,-0.0804,-0.0812,-0.0846,-0.0852,-0.0861,-0.0895,-0.0907,-0.0932,-0.0954,-0.0981,-0.1026,-0.1053,-0.106,-0.1077,-0.1073,-0.1068,-0.1111,-0.1108,-0.1109,-0.1067,-0.1063,-0.1127,-0.1128,-0.1129,-0.113,0,0,-0.0767,-0.0801,-0.0805,-0.0804,-0.0841,-0.0845,-0.0859,-0.0876,-0.0878,-0.0927,-0.0935,-0.0969,-0.0987,-0.1002,-0.1024,-0.1037,-0.1009,-0.1064,-0.1066,-0.0999,-0.1011,-0.0938,-0.0926,-0.1064,-0.1064,-0.1064,-0.097,0,-0.0755,-0.0779,-0.0797,-0.079,-0.0796,-0.0817,-0.0824,-0.0838,-0.0868,-0.089,-0.092,-0.0943,-0.0967,-0.0975,-0.099,-0.1025,-0.1003,-0.1027,-0.1042,-0.1041,-0.0957,-0.0922,-0.0862,-0.077,-0.0966,-0.0966,-0.0965,0,-0.0737,-0.0762,-0.0763,-0.0761,-0.0764,-0.076,-0.0764,-0.0774,-0.0805,-0.0831,-0.0855,-0.089,-0.0901,-0.0937,-0.0955,-0.0975,-0.0971,-0.099,-0.0989,-0.0938,-0.0961,-0.0813,-0.0755,-0.0653,-0.0959,-0.0959,-0.096,0,-0.0699,-0.0721,-0.0717,-0.0722,-0.0739,-0.0729,-0.073,-0.0752,-0.0766,-0.0789,-0.0811,-0.0837,-0.0862,-0.0883,-0.0905,-0.0937,-0.0922,-0.0976,-0.0887,-0.088,-0.0839,-0.0828,-0.0664,-0.0959,-0.0959,-0.0959,-0.0959,0,-0.0676,-0.0669,-0.0697,-0.0697,-0.068,-0.0693,-0.068,-0.0691,-0.0719,-0.0736,-0.0774,-0.0798,-0.086,-0.0866,-0.0879,-0.085,-0.0893,-0.0851,-0.0854,-0.0814,-0.0803,-0.0722,-0.0783,-0.0955,-0.0956,-0.0957,-0.0958,0,-0.0631,-0.0653,-0.0643,-0.066,-0.0661,-0.0642,-0.0654,-0.0652,-0.0683,-0.0709,-0.0717,-0.0771,-0.0772,-0.0787,-0.0809,-0.0807,-0.0773,-0.0761,-0.0671,-0.0664,-0.05,-0.0564,-0.0612,-0.0579,-0.0651,-0.0648,-0.0647,0,-0.0613,-0.0607,-0.0614,-0.0609,-0.0614,-0.0604,-0.0603,-0.0628,-0.0644,-0.0696,-0.071,-0.0714,-0.0715,-0.0684,-0.0663,-0.0612,-0.0661,-0.0527,-0.0579,-0.0441,-0.0517,-0.0666,-0.0646,-0.0486,-0.0483,-0.048,-0.0478,0,-0.0578,-0.0575,-0.0574,-0.0569,-0.0559,-0.056,-0.0567,-0.0577,-0.0616,-0.064,-0.0668,-0.0666,-0.0626,-0.0563,-0.048,-0.0457,-0.052,-0.0471,-0.0377,-0.0397,-0.0508,-0.0492,-0.0557,-0.0456,-0.0458,-0.046,-0.0461,-0.0462,-0.0543,-0.053,-0.0527,-0.0512,-0.0517,-0.0518,-0.0498,-0.0521,-0.0532,-0.0551,-0.0596,-0.0558,-0.0494,-0.0379,-0.0313,-0.0154,-0.0351,-0.0136,-0.0226,-0.0385,-0.0359,-0.033,-0.0215,-0.0216,-0.0217,-0.0217,-0.0218,0,-0.0493,-0.0486,-0.0474,-0.046,-0.046,-0.0474,-0.048,-0.0456,-0.0449,-0.045,-0.0453,-0.0368,-0.0247,-0.015,-0.0007,0.008,0.0012,0.0107,-0.0064,-0.0053,-0.0018,-0.0004,0.0219,0.0219,0.0219,0.0219,0.0219,0.0219,-0.0465,-0.0434,-0.0427,-0.0409,-0.0413,-0.0394,-0.0387,-0.0352,-0.0332,-0.0263,-0.0213,-0.0197,-0.0098,0.0012,0.0205,0.0235,0.0196,0.0118,0.0107,0.0192,0.0164,0.0136,0.0148,0.0399,0.0399,0.0114,0.0112,0.011]},{"header":{"parameterUnit":"m.s-1","parameterCategory":2,"la1":30.2991,"la2":30.254,"lo1":-89.0895,"lo2":-89.0444,"dy":0.0017,"dx":0.0017,"nx":28,"ny":28,"refTime":"2024-07-02T03:00:00:Z","depth":"0","parameterNumber":3,"parameterNumberName":"V-component_of_CURRENTS"},"data":[0,0,0,0,0,0,0,0,0,0,0,0,0,0,0,0,0,0,0,0,0,0,0,0,0,0,0,0,0,0,0,0,0,0,0,0,0,0,0,0,0,0,0,0,0,0,0,0,0,0,0,0,0,0,0,0,0,0,-0.0861,-0.0862,0,-0.0872,-0.0872,-0.0871,-0.0806,-0.0804,-0.0803,-0.0802,-0.0829,-0.083,-0.0832,0,0,0,0,0,0,0,0,0,0,0,0,0,-0.0745,-0.0748,-0.0861,-0.0862,-0.0863,-0.0872,-0.0872,-0.0871,-0.0806,-0.0804,-0.0803,-0.0802,-0.0828,-0.083,-0.0832,0,0,0,0,0,0,0,0,0,0,0,0,0,-0.0773,-0.0748,-0.0861,-0.0837,-0.0835,-0.0873,-0.0872,-0.0871,-0.0806,-0.0804,-0.0803,-0.0801,-0.0827,-0.083,-0.0833,-0.0885,0,0,-0.0841,-0.0842,0,0,0,0,0,0,0,0,-0.0772,-0.0776,-0.084,-0.0839,-0.0837,-0.0842,-0.0841,-0.0879,-0.0807,-0.0809,-0.0802,-0.08,-0.0841,-0.0842,-0.0837,-0.0886,-0.0887,-0.0841,-0.0843,-0.0844,-0.0845,0,0,0,0,0,0,0,-0.077,-0.0776,-0.0858,-0.0841,-0.084,-0.0813,-0.0814,-0.0847,-0.083,-0.0809,-0.0806,-0.082,-0.0839,-0.0835,-0.0838,-0.0888,-0.0841,-0.0843,-0.0845,-0.0846,-0.1013,-0.1016,0,0,0,0,0,0,-0.0788,-0.0774,-0.0858,-0.0859,-0.0808,-0.0817,-0.0818,-0.0836,-0.0829,-0.0828,-0.0821,-0.0817,-0.0831,-0.0835,-0.0839,-0.0899,-0.0844,-0.0846,-0.0848,-0.1011,-0.1014,-0.1017,0,0,0,0,0,0,-0.0786,-0.0796,-0.0858,-0.0822,-0.0829,-0.0822,-0.0842,-0.0838,-0.0827,-0.0839,-0.0837,-0.0815,-0.083,-0.0835,-0.0876,-0.0899,-0.0848,-0.085,-0.1007,-0.1012,-0.1015,-0.1021,0,0,0,0,0,0,-0.0782,-0.0795,-0.0806,-0.0824,-0.0832,-0.0878,-0.0845,-0.084,-0.0843,-0.0836,-0.0835,-0.0835,-0.0829,-0.0872,-0.0879,-0.0902,-0.0852,-0.1004,-0.1009,-0.1014,-0.1017,-0.1025,-0.1031,0,0,0,0,0,-0.0778,-0.0802,-0.0807,-0.0817,-0.0851,-0.088,-0.088,-0.0864,-0.0844,-0.0845,-0.0853,-0.0834,-0.0911,-0.0877,-0.0884,-0.0908,-0.1001,-0.1008,-0.1014,-0.1014,-0.1023,-0.1031,0,0,0,0,0,0,-0.0762,-0.08,-0.0804,-0.084,-0.086,-0.0871,-0.0879,-0.087,-0.0875,-0.0876,-0.0866,-0.0869,-0.0914,-0.0927,-0.089,-0.0979,-0.0956,-0.0964,-0.0954,-0.0963,-0.0969,-0.0952,-0.0855,0,0,0,0,0,-0.0769,-0.0795,-0.0826,-0.0857,-0.0869,-0.0875,-0.0883,-0.0882,-0.0896,-0.0894,-0.0893,-0.0916,-0.0951,-0.0965,-0.0994,-0.1045,-0.1025,-0.1072,-0.1079,-0.1084,-0.108,-0.1073,-0.1077,-0.1038,-0.1038,-0.1038,0,0,-0.0774,-0.08,-0.0815,-0.0855,-0.0869,-0.0887,-0.0873,-0.09,-0.0913,-0.0904,-0.0916,-0.0938,-0.0972,-0.1019,-0.1042,-0.1028,-0.1089,-0.1092,-0.1096,-0.1089,-0.108,-0.1083,-0.1086,-0.1042,-0.1041,-0.1041,0,0,-0.0798,-0.0822,-0.0846,-0.0864,-0.0901,-0.0907,-0.0917,-0.0934,-0.0935,-0.097,-0.097,-0.1003,-0.1047,-0.1068,-0.1089,-0.1162,-0.1125,-0.1185,-0.12,-0.1194,-0.1196,-0.1197,-0.1172,-0.1171,-0.1187,-0.1187,-0.1187,0,-0.0796,-0.0836,-0.0857,-0.0882,-0.0893,-0.0915,-0.0932,-0.0951,-0.0977,-0.099,-0.0979,-0.1046,-0.1068,-0.1125,-0.1151,-0.1172,-0.1156,-0.1154,-0.1197,-0.1198,-0.1198,-0.1173,-0.1172,-0.1188,-0.1188,-0.1188,-0.1188,0,-0.0839,-0.0861,-0.088,-0.0912,-0.0924,-0.0954,-0.0981,-0.1006,-0.1012,-0.1021,-0.1072,-0.1102,-0.1135,-0.1162,-0.1177,-0.1216,-0.1198,-0.1198,-0.1157,-0.1201,-0.1174,-0.1172,-0.119,-0.1189,-0.1189,-0.1189,0,0,-0.0856,-0.0897,-0.0903,-0.0909,-0.0941,-0.0958,-0.0997,-0.1031,-0.1055,-0.1083,-0.1099,-0.1169,-0.1172,-0.1199,-0.1224,-0.123,-0.1225,-0.122,-0.1219,-0.1165,-0.1194,-0.122,-0.122,-0.1223,-0.1223,-0.1223,-0.1168,0,-0.0878,-0.0914,-0.0929,-0.0952,-0.0964,-0.099,-0.1014,-0.105,-0.1078,-0.1105,-0.1146,-0.1171,-0.1192,-0.1207,-0.122,-0.1224,-0.1223,-0.1239,-0.1188,-0.1186,-0.1177,-0.122,-0.1193,-0.1146,-0.1166,-0.1166,-0.1166,0,-0.0909,-0.0926,-0.0945,-0.0959,-0.0967,-0.0982,-0.1021,-0.1051,-0.1105,-0.1126,-0.1162,-0.1177,-0.121,-0.1211,-0.1217,-0.1224,-0.1214,-0.1208,-0.1206,-0.1224,-0.121,-0.1112,-0.1142,-0.0932,-0.1162,-0.1163,-0.1163,0,-0.0899,-0.0932,-0.0941,-0.0949,-0.0975,-0.0991,-0.1007,-0.1054,-0.1083,-0.1132,-0.1141,-0.1179,-0.1184,-0.1186,-0.1191,-0.1194,-0.1179,-0.1176,-0.1186,-0.1186,-0.1152,-0.115,-0.0947,-0.117,-0.117,-0.1171,-0.1171,0,-0.0905,-0.0909,-0.094,-0.0947,-0.0963,-0.0977,-0.1007,-0.1043,-0.1084,-0.1111,-0.1141,-0.1165,-0.1176,-0.1177,-0.1179,-0.1181,-0.1165,-0.1192,-0.1182,-0.1158,-0.1157,-0.0967,-0.0808,-0.1168,-0.1169,-0.1169,-0.117,0,-0.0875,-0.0901,-0.0916,-0.0948,-0.0958,-0.0968,-0.1001,-0.1033,-0.1061,-0.1096,-0.1102,-0.1137,-0.1143,-0.1152,-0.1147,-0.1159,-0.1039,-0.1162,-0.113,-0.112,-0.0954,-0.0798,-0.0616,-0.0518,-0.1157,-0.1158,-0.1158,0,-0.0851,-0.0861,-0.0912,-0.093,-0.0942,-0.0964,-0.0988,-0.1025,-0.1057,-0.1087,-0.1102,-0.111,-0.1136,-0.114,-0.1174,-0.1176,-0.1007,-0.1132,-0.1152,-0.094,-0.0757,-0.0687,-0.0612,-0.1095,-0.1095,-0.1095,-0.1095,0,-0.0803,-0.0835,-0.0855,-0.0906,-0.0935,-0.0967,-0.0998,-0.1019,-0.1062,-0.1081,-0.1108,-0.1117,-0.1146,-0.1164,-0.1176,-0.1167,-0.0935,-0.1132,-0.091,-0.0693,-0.06,-0.0504,-0.1114,-0.1094,-0.1094,-0.1094,-0.1094,-0.1094,-0.0762,-0.0777,-0.0829,-0.0873,-0.0913,-0.0958,-0.0977,-0.1014,-0.1047,-0.1067,-0.1099,-0.1105,-0.1095,-0.1135,-0.1113,-0.0953,-0.0921,-0.0859,-0.0687,-0.0639,-0.0541,-0.1155,-0.1136,-0.1136,-0.1136,-0.1137,-0.1137,0,-0.0707,-0.0745,-0.0791,-0.0853,-0.0894,-0.0924,-0.0976,-0.0988,-0.1015,-0.1045,-0.1064,-0.1043,-0.0974,-0.0908,-0.0751,-0.0538,-0.0484,-0.0356,-0.0196,-0.0144,-0.0687,-0.0682,-0.0567,-0.0567,-0.0567,-0.0567,-0.0567,-0.0568,-0.068,-0.0716,-0.0761,-0.0819,-0.0859,-0.0894,-0.0918,-0.0934,-0.0957,-0.0964,-0.0969,-0.0974,-0.0748,-0.034,-0.0012,0.0043,0.0335,0.034,0.048,0.0184,0.0151,0.012,0.0158,0.0449,0.045,0.0936,0.0942,0.0947]}],[{"header":{"parameterUnit":"m.s-1","parameterCategory":2,"la1":30.2991,"la2":30.254,"lo1":-89.0895,"lo2":-89.0444,"dy":0.0017,"dx":0.0017,"nx":28,"ny":28,"refTime":"2024-07-02T03:00:00:Z","depth":"2","parameterNumber":2,"parameterNumberName":"U-component_of_CURRENTS"},"data":[0,0,0,0,0,0,0,0,0,0,0,0,0,0,0,0,0,0,0,0,0,0,0,0,0,0,0,0,0,0,0,0,0,0,0,0,0,0,0,0,0,0,0,0,0,0,0,0,0,0,0,0,0,0,0,0,0,0,-0.2398,-0.2398,0,-0.2314,-0.2313,-0.2312,-0.2305,-0.2306,-0.2307,-0.2308,-0.2248,-0.2245,-0.2243,0,0,0,0,0,0,0,0,0,0,0,0,0,-0.2512,-0.251,-0.2398,-0.2397,-0.2397,-0.2314,-0.2313,-0.2312,-0.2304,-0.2306,-0.2307,-0.2308,-0.2248,-0.2245,-0.2242,0,0,0,0,0,0,0,0,0,0,0,0,0,-0.2448,-0.251,-0.2399,-0.2384,-0.2382,-0.2314,-0.2313,-0.2311,-0.2304,-0.2306,-0.2307,-0.2309,-0.2249,-0.2246,-0.2242,-0.2188,0,0,-0.223,-0.2229,0,0,0,0,0,0,0,0,-0.2451,-0.2443,-0.2387,-0.2385,-0.2383,-0.2323,-0.2331,-0.2272,-0.2304,-0.2332,-0.2308,-0.2309,-0.2275,-0.2269,-0.2247,-0.2185,-0.2182,-0.223,-0.2228,-0.2226,-0.2225,0,0,0,0,0,0,0,-0.2456,-0.2447,-0.2364,-0.2386,-0.2383,-0.2368,-0.236,-0.2319,-0.2295,-0.233,-0.233,-0.2322,-0.2274,-0.2251,-0.2246,-0.2181,-0.223,-0.2227,-0.2224,-0.2223,-0.2078,-0.2077,0,0,0,0,0,0,-0.2469,-0.2451,-0.2366,-0.2361,-0.2423,-0.2365,-0.2356,-0.2339,-0.2295,-0.229,-0.2321,-0.2322,-0.2257,-0.225,-0.2244,-0.2186,-0.2226,-0.2222,-0.222,-0.208,-0.2078,-0.2076,0,0,0,0,0,0,-0.2471,-0.2462,-0.237,-0.2406,-0.2394,-0.2362,-0.2342,-0.2337,-0.2317,-0.2288,-0.2284,-0.2307,-0.2258,-0.2249,-0.2202,-0.2184,-0.2221,-0.2217,-0.2082,-0.2079,-0.2077,-0.2064,0,0,0,0,0,0,-0.2475,-0.2463,-0.2442,-0.2406,-0.2392,-0.2335,-0.234,-0.2334,-0.2311,-0.2311,-0.2275,-0.2271,-0.2258,-0.2208,-0.2198,-0.2179,-0.2214,-0.2084,-0.2081,-0.2078,-0.2067,-0.2062,-0.2058,0,0,0,0,0,-0.2479,-0.2447,-0.2441,-0.243,-0.2368,-0.2335,-0.2325,-0.2308,-0.2309,-0.2296,-0.2266,-0.2272,-0.2183,-0.2203,-0.2192,-0.2172,-0.2085,-0.2081,-0.2078,-0.2069,-0.2063,-0.2058,0,0,0,0,0,0,-0.2483,-0.2442,-0.2435,-0.2391,-0.2369,-0.2334,-0.2307,-0.2303,-0.2266,-0.2262,-0.2245,-0.2237,-0.2192,-0.2175,-0.2198,-0.212,-0.2137,-0.2131,-0.2134,-0.2128,-0.2124,-0.2132,-0.2211,0,0,0,0,0,-0.2474,-0.2435,-0.2411,-0.2372,-0.2361,-0.2334,-0.2313,-0.2306,-0.2275,-0.226,-0.2235,-0.2201,-0.2165,-0.2144,-0.2111,-0.2059,-0.2041,-0.204,-0.2036,-0.2032,-0.203,-0.1985,-0.1977,-0.2065,-0.2065,-0.2065,0,0,-0.2463,-0.2433,-0.2412,-0.237,-0.2344,-0.2316,-0.2324,-0.2293,-0.2266,-0.2257,-0.2203,-0.2183,-0.2148,-0.2098,-0.2076,-0.2084,-0.1993,-0.2028,-0.2025,-0.2025,-0.1981,-0.1973,-0.1965,-0.2062,-0.2063,-0.2063,0,0,-0.2425,-0.2399,-0.236,-0.2341,-0.2307,-0.2292,-0.2287,-0.2254,-0.2239,-0.2187,-0.2177,-0.2143,-0.2082,-0.2057,-0.2036,-0.1981,-0.1974,-0.1974,-0.1954,-0.191,-0.1903,-0.1896,-0.185,-0.184,-0.1969,-0.1969,-0.1969,0,-0.2415,-0.2363,-0.2345,-0.231,-0.229,-0.2284,-0.2254,-0.2228,-0.2184,-0.217,-0.2171,-0.2086,-0.206,-0.2005,-0.1989,-0.1972,-0.1948,-0.1981,-0.1906,-0.1899,-0.1893,-0.1847,-0.1836,-0.1968,-0.1968,-0.1968,-0.1968,0,-0.2358,-0.2317,-0.2293,-0.2246,-0.2226,-0.2197,-0.2177,-0.2155,-0.2139,-0.212,-0.207,-0.2031,-0.1993,-0.1973,-0.1961,-0.1904,-0.1901,-0.191,-0.1926,-0.1883,-0.1837,-0.1826,-0.1967,-0.1967,-0.1967,-0.1968,0,0,-0.2326,-0.2267,-0.2256,-0.2233,-0.2194,-0.2174,-0.2136,-0.2105,-0.2085,-0.2045,-0.2013,-0.195,-0.1954,-0.193,-0.1915,-0.187,-0.1799,-0.1871,-0.1869,-0.1835,-0.1697,-0.1582,-0.1558,-0.18,-0.1798,-0.1796,-0.168,0,-0.2286,-0.2222,-0.2201,-0.2144,-0.2113,-0.2107,-0.2076,-0.2052,-0.2031,-0.2,-0.1969,-0.1933,-0.1931,-0.1917,-0.1872,-0.1824,-0.177,-0.183,-0.1734,-0.1731,-0.1642,-0.1541,-0.1505,-0.1388,-0.1669,-0.1667,-0.1665,0,-0.2225,-0.2196,-0.2134,-0.2101,-0.209,-0.2057,-0.2027,-0.2002,-0.1971,-0.1961,-0.1933,-0.1923,-0.1863,-0.1868,-0.1758,-0.1799,-0.1744,-0.17,-0.1695,-0.1585,-0.1593,-0.1475,-0.1356,-0.1646,-0.1648,-0.1649,-0.165,0,-0.2192,-0.2143,-0.2094,-0.2078,-0.2041,-0.2018,-0.2008,-0.1983,-0.1966,-0.194,-0.1928,-0.1878,-0.1835,-0.1775,-0.1697,-0.1727,-0.1566,-0.16,-0.1439,-0.1431,-0.1377,-0.1366,-0.1504,-0.1505,-0.1505,-0.1505,-0.1506,0,-0.2136,-0.2087,-0.2076,-0.2041,-0.2006,-0.1997,-0.1957,-0.1951,-0.1934,-0.1905,-0.1909,-0.187,-0.1807,-0.1724,-0.1673,-0.1499,-0.1544,-0.1401,-0.1376,-0.1367,-0.1357,-0.1576,-0.1586,-0.1501,-0.1502,-0.1503,-0.1503,0,-0.2054,-0.2044,-0.1993,-0.1979,-0.197,-0.1945,-0.1928,-0.1908,-0.1909,-0.1871,-0.1866,-0.1829,-0.1713,-0.1636,-0.1509,-0.1431,-0.1313,-0.1245,-0.123,-0.1203,-0.1219,-0.123,-0.1047,-0.1041,-0.1037,-0.1033,-0.1029,0,-0.1991,-0.1956,-0.1947,-0.1929,-0.1905,-0.1881,-0.1862,-0.1878,-0.1861,-0.184,-0.1812,-0.1713,-0.1632,-0.1399,-0.1244,-0.1085,-0.1165,-0.0942,-0.0974,-0.1168,-0.1164,-0.1182,-0.1198,-0.0907,-0.0903,-0.09,-0.0897,0,-0.1886,-0.1886,-0.1862,-0.1841,-0.1818,-0.1803,-0.1783,-0.1773,-0.1785,-0.1772,-0.1722,-0.1667,-0.1436,-0.1236,-0.1002,-0.0906,-0.0966,-0.0864,-0.1056,-0.1018,-0.1023,-0.1024,-0.1047,-0.0868,-0.0871,-0.0873,-0.0875,-0.0876,-0.181,-0.1791,-0.1777,-0.1738,-0.1725,-0.1702,-0.1667,-0.1669,-0.1649,-0.159,-0.1599,-0.1453,-0.132,-0.0918,-0.0798,-0.0651,-0.0703,-0.0672,-0.0689,-0.0707,-0.07,-0.0695,-0.0479,-0.0479,-0.048,-0.048,-0.0481,0,-0.173,-0.1701,-0.1674,-0.1642,-0.1605,-0.1615,-0.1588,-0.1553,-0.1506,-0.1438,-0.1377,-0.1114,-0.0946,-0.0804,-0.0556,-0.0446,-0.0493,-0.0405,-0.0534,-0.0561,-0.0585,-0.0579,-0.0322,-0.0322,-0.0321,-0.0321,0,0,-0.1683,-0.1634,-0.1622,-0.1523,-0.1489,-0.142,-0.1389,-0.1351,-0.1287,-0.114,-0.1008,-0.0964,-0.0852,-0.0641,-0.054,-0.043,-0.0503,-0.0378,-0.0508,-0.0697,-0.0722,-0.0732,-0.0749,0,0,0,0,0]},{"header":{"parameterUnit":"m.s-1","parameterCategory":2,"la1":30.2991,"la2":30.254,"lo1":-89.0895,"lo2":-89.0444,"dy":0.0017,"dx":0.0017,"nx":28,"ny":28,"refTime":"2024-07-02T03:00:00:Z","depth":"2","parameterNumber":3,"parameterNumberName":"V-component_of_CURRENTS"},"data":[0,0,0,0,0,0,0,0,0,0,0,0,0,0,0,0,0,0,0,0,0,0,0,0,0,0,0,0,0,0,0,0,0,0,0,0,0,0,0,0,0,0,0,0,0,0,0,0,0,0,0,0,0,0,0,0,0,0,0.0618,0.062,0,0.082,0.0823,0.0825,0.0892,0.0891,0.089,0.0889,0.1061,0.1066,0.1072,0,0,0,0,0,0,0,0,0,0,0,0,0,0.0379,0.0382,0.0618,0.062,0.0623,0.082,0.0823,0.0826,0.0892,0.0891,0.089,0.0888,0.1059,0.1065,0.1072,0,0,0,0,0,0,0,0,0,0,0,0,0,0.0524,0.0384,0.0618,0.0678,0.0685,0.0819,0.0823,0.0827,0.0893,0.0891,0.0889,0.0888,0.1057,0.1065,0.1073,0.1158,0,0,0.1099,0.1102,0,0,0,0,0,0,0,0,0.0516,0.0533,0.0667,0.0674,0.0682,0.0827,0.0801,0.0935,0.0893,0.0817,0.0889,0.0887,0.0979,0.0994,0.104,0.1166,0.1173,0.1099,0.1105,0.1108,0.1111,0,0,0,0,0,0,0,0.0505,0.0525,0.0701,0.0669,0.0679,0.0725,0.0743,0.0828,0.0906,0.0823,0.0828,0.0847,0.0983,0.1031,0.1044,0.1176,0.1099,0.1107,0.1112,0.1115,0.1329,0.133,0,0,0,0,0,0,0.0473,0.0516,0.0694,0.0707,0.059,0.073,0.075,0.0784,0.0906,0.0923,0.0848,0.0849,0.1018,0.1034,0.105,0.1093,0.1108,0.1116,0.1121,0.1329,0.1329,0.133,0,0,0,0,0,0,0.0468,0.0488,0.0686,0.0612,0.064,0.0735,0.0773,0.0789,0.0799,0.0925,0.0941,0.0835,0.1017,0.1038,0.1109,0.1102,0.112,0.1127,0.1328,0.1329,0.133,0.122,0,0,0,0,0,0,0.046,0.0485,0.048,0.0611,0.0643,0.0735,0.0775,0.0794,0.0814,0.0817,0.0921,0.0937,0.1018,0.1096,0.1117,0.1114,0.1134,0.1327,0.1328,0.1329,0.1223,0.1217,0.1212,0,0,0,0,0,0.0451,0.0451,0.0479,0.0499,0.064,0.0734,0.0755,0.0818,0.0814,0.0819,0.0896,0.0932,0.1119,0.1104,0.1129,0.1127,0.1326,0.1328,0.1329,0.1225,0.1218,0.1212,0,0,0,0,0,0,0.0349,0.0463,0.0494,0.053,0.061,0.0743,0.0746,0.0791,0.0858,0.0846,0.095,0.0974,0.1029,0.1099,0.108,0.1194,0.1225,0.1232,0.1137,0.1132,0.1127,0.107,0.1141,0,0,0,0,0,0.0324,0.0344,0.047,0.0489,0.052,0.0623,0.0658,0.0708,0.0794,0.0818,0.0896,0.0981,0.1065,0.1109,0.1191,0.1261,0.1299,0.1275,0.127,0.1264,0.1237,0.1357,0.1359,0.1335,0.1335,0.1335,0,0,0.029,0.035,0.0363,0.0465,0.0526,0.0582,0.0639,0.0682,0.0725,0.0829,0.0883,0.0958,0.1077,0.1153,0.1184,0.1205,0.1275,0.1266,0.1261,0.1236,0.1359,0.1361,0.1363,0.1336,0.1336,0.1336,0,0,0.0239,0.0282,0.0288,0.0351,0.0433,0.0512,0.0509,0.0626,0.0663,0.074,0.0821,0.0896,0.1017,0.1118,0.1181,0.12,0.1236,0.1208,0.1147,0.1264,0.1266,0.1269,0.1239,0.124,0.1215,0.1215,0.1215,0,0.0188,0.0233,0.0301,0.0333,0.0377,0.0468,0.0501,0.0567,0.0691,0.073,0.0731,0.0924,0.1011,0.1133,0.1123,0.1187,0.1199,0.1158,0.1254,0.1259,0.1264,0.1233,0.1236,0.121,0.1211,0.1211,0.1212,0,0.0167,0.0198,0.0201,0.0278,0.0329,0.0367,0.0476,0.0516,0.0559,0.0644,0.0736,0.0865,0.0978,0.1017,0.1066,0.1147,0.1119,0.1223,0.126,0.1259,0.1226,0.1231,0.1203,0.1205,0.1206,0.1207,0,0,0.0078,0.017,0.0169,0.0201,0.0305,0.0353,0.0405,0.0509,0.0544,0.0638,0.0702,0.083,0.0874,0.0945,0.1033,0.1116,0.113,0.1147,0.1155,0.1091,0.126,0.1175,0.1171,0.1248,0.1251,0.1252,0.1193,0,0.0045,0.0083,0.0146,0.0186,0.0224,0.0317,0.0368,0.046,0.0537,0.0619,0.0741,0.0821,0.086,0.0891,0.0984,0.1114,0.1149,0.1127,0.1292,0.1293,0.1203,0.118,0.1175,0.1119,0.1198,0.1199,0.1199,0,0.0011,0.0048,0.0072,0.0163,0.0184,0.0209,0.0301,0.0364,0.0497,0.0546,0.0641,0.0735,0.0839,0.0887,0.1059,0.1032,0.1099,0.1188,0.1192,0.1155,0.122,0.1155,0.1126,0.1208,0.1207,0.1207,0.1206,0,-0.0076,0.0001,0.0011,0.0042,0.015,0.0156,0.0207,0.0323,0.038,0.0481,0.0523,0.0673,0.0739,0.0881,0.0992,0.1034,0.1156,0.128,0.125,0.124,0.1289,0.1281,0.1385,0.1385,0.1386,0.1386,0.1386,0,-0.0118,-0.0111,-0.0043,-0.0036,-0.002,0.0068,0.0095,0.0164,0.0269,0.034,0.0458,0.0528,0.0744,0.0845,0.0958,0.1059,0.1132,0.1193,0.1239,0.1239,0.1228,0.1379,0.1379,0.1383,0.1384,0.1384,0.1385,0,-0.0216,-0.0168,-0.0152,-0.0082,-0.0066,-0.0068,0.0013,0.0054,0.0132,0.0224,0.0241,0.0415,0.0516,0.0672,0.0883,0.0997,0.1125,0.1136,0.1022,0.1055,0.1126,0.1121,0.113,0.1127,0.1124,0.1122,0.112,0,-0.0262,-0.0269,-0.0221,-0.0213,-0.0197,-0.0177,-0.0144,-0.0045,0.0015,0.0161,0.0211,0.0305,0.0382,0.0575,0.081,0.0948,0.0978,0.0984,0.111,0.1065,0.111,0.1109,0.1108,0.1096,0.1094,0.1092,0.1091,0,-0.0345,-0.0347,-0.0326,-0.0316,-0.0304,-0.0257,-0.0207,-0.0171,-0.0036,0.0029,0.013,0.0181,0.0375,0.0553,0.0695,0.0803,0.097,0.0955,0.1007,0.1151,0.1028,0.1073,0.1075,0.1077,0.1079,0.108,0.108,0.1081,-0.0423,-0.0428,-0.0409,-0.0397,-0.0374,-0.0327,-0.0292,-0.0216,-0.0141,-0.0011,0.0048,0.0165,0.0294,0.0563,0.066,0.0834,0.0909,0.0958,0.0966,0.0976,0.0973,0.0853,0.0859,0.0859,0.0859,0.0859,0.0859,0,-0.0483,-0.0474,-0.0472,-0.0437,-0.0418,-0.0397,-0.0306,-0.0255,-0.0178,-0.0054,0.0011,0.015,0.0315,0.0463,0.0776,0.0889,0.0948,0.0828,0.091,0.0923,0.0935,0.0934,0.0807,0.0807,0.0806,0.0806,0,0,-0.051,-0.0515,-0.0497,-0.0475,-0.046,-0.0414,-0.0364,-0.03,-0.0184,-0.01,0.0033,0.0141,0.0357,0.05,0.0611,0.0749,0.0801,0.0735,0.0776,0.0872,0.0881,0.1013,0.1026,0,0,0,0,0]}],[{"header":{"parameterUnit":"m.s-1","parameterCategory":2,"la1":30.2991,"la2":30.254,"lo1":-89.0895,"lo2":-89.0444,"dy":0.0017,"dx":0.0017,"nx":28,"ny":28,"refTime":"2024-07-02T03:00:00:Z","depth":"4","parameterNumber":2,"parameterNumberName":"U-component_of_CURRENTS"},"data":[0,0,0,0,0,0,0,0,0,0,0,0,0,0,0,0,0,0,0,0,0,0,0,0,0,0,0,0,0,0,0,0,0,0,0,0,0,0,0,0,0,0,0,0,0,0,0,0,0,0,0,0,0,0,0,0,0,0,-0.0964,-0.0964,0,-0.1039,-0.104,-0.1041,-0.1139,-0.114,-0.1142,-0.1143,-0.1275,-0.1277,-0.1279,0,0,0,0,0,0,0,0,0,0,0,0,0,-0.0917,-0.0917,-0.0964,-0.0964,-0.0965,-0.1038,-0.104,-0.1041,-0.1139,-0.114,-0.1142,-0.1143,-0.1274,-0.1277,-0.128,0,0,0,0,0,0,0,0,0,0,0,0,0,-0.0962,-0.0918,-0.0963,-0.102,-0.1026,-0.1038,-0.104,-0.1041,-0.1138,-0.114,-0.1142,-0.1144,-0.1273,-0.1277,-0.128,-0.1261,0,0,-0.129,-0.1292,0,0,0,0,0,0,0,0,-0.0959,-0.0964,-0.1011,-0.1016,-0.1023,-0.1079,-0.1072,-0.1117,-0.1138,-0.1099,-0.1143,-0.1145,-0.1211,-0.122,-0.1233,-0.1267,-0.1273,-0.1291,-0.1293,-0.1294,-0.1295,0,0,0,0,0,0,0,-0.0956,-0.0961,-0.0996,-0.1012,-0.1019,-0.1046,-0.1055,-0.1081,-0.1146,-0.1102,-0.1109,-0.1112,-0.1216,-0.1229,-0.1237,-0.1275,-0.1291,-0.1294,-0.1296,-0.1297,-0.1432,-0.1434,0,0,0,0,0,0,-0.0938,-0.0958,-0.0994,-0.0998,-0.0992,-0.1045,-0.1055,-0.1061,-0.1145,-0.1158,-0.111,-0.1116,-0.1223,-0.1233,-0.1242,-0.1318,-0.1294,-0.1298,-0.1299,-0.1431,-0.1433,-0.1434,0,0,0,0,0,0,-0.0936,-0.094,-0.0991,-0.0977,-0.0985,-0.1043,-0.105,-0.1062,-0.1117,-0.115,-0.1165,-0.1157,-0.1225,-0.1237,-0.1298,-0.132,-0.1299,-0.1302,-0.1429,-0.1431,-0.1433,-0.1409,0,0,0,0,0,0,-0.0935,-0.0939,-0.0953,-0.0976,-0.0985,-0.1027,-0.1048,-0.1062,-0.1111,-0.1121,-0.1194,-0.1206,-0.1227,-0.1293,-0.1301,-0.1324,-0.1305,-0.1427,-0.143,-0.1433,-0.1408,-0.141,-0.1412,0,0,0,0,0,-0.0933,-0.0947,-0.0954,-0.0959,-0.0998,-0.1028,-0.1037,-0.1085,-0.1112,-0.1142,-0.1188,-0.1206,-0.1318,-0.1296,-0.1306,-0.1331,-0.1426,-0.1429,-0.1433,-0.1407,-0.141,-0.1412,0,0,0,0,0,0,-0.0943,-0.0958,-0.0967,-0.0987,-0.1015,-0.1044,-0.1067,-0.1101,-0.116,-0.1177,-0.1216,-0.1231,-0.1291,-0.1319,-0.1294,-0.1382,-0.1378,-0.1384,-0.1356,-0.1359,-0.1361,-0.1384,-0.1308,0,0,0,0,0,-0.0943,-0.0953,-0.0976,-0.0992,-0.1002,-0.1039,-0.1062,-0.1097,-0.1139,-0.117,-0.121,-0.1262,-0.1305,-0.134,-0.1375,-0.1419,-0.1421,-0.1448,-0.145,-0.1451,-0.148,-0.1493,-0.1498,-0.1446,-0.1446,-0.1446,0,0,-0.0951,-0.0957,-0.0967,-0.0994,-0.1012,-0.1036,-0.1061,-0.1101,-0.1135,-0.1171,-0.1232,-0.1266,-0.1318,-0.1366,-0.1397,-0.1399,-0.1458,-0.1455,-0.1456,-0.1485,-0.1497,-0.1502,-0.1506,-0.1448,-0.1448,-0.1447,0,0,-0.0956,-0.0974,-0.0981,-0.1003,-0.1033,-0.1054,-0.1073,-0.1115,-0.1154,-0.1207,-0.1239,-0.1268,-0.1358,-0.137,-0.1396,-0.1429,-0.1462,-0.1482,-0.1518,-0.1529,-0.1533,-0.1537,-0.1494,-0.1494,-0.149,-0.149,-0.149,0,-0.0963,-0.0975,-0.0992,-0.1005,-0.1022,-0.1064,-0.1086,-0.1125,-0.1187,-0.1211,-0.1233,-0.1331,-0.1342,-0.1398,-0.1426,-0.1426,-0.1461,-0.1494,-0.1529,-0.1533,-0.1537,-0.1493,-0.1494,-0.1489,-0.1489,-0.1489,-0.1489,0,-0.0969,-0.099,-0.0995,-0.1017,-0.1045,-0.1071,-0.1112,-0.115,-0.1194,-0.1231,-0.1301,-0.1323,-0.1381,-0.1395,-0.1433,-0.1489,-0.1509,-0.1516,-0.1512,-0.154,-0.1492,-0.1493,-0.1488,-0.1488,-0.1488,-0.1488,0,0,-0.0952,-0.099,-0.0993,-0.1005,-0.1056,-0.1072,-0.112,-0.1168,-0.1196,-0.1269,-0.1303,-0.1373,-0.1404,-0.1438,-0.1473,-0.1508,-0.1515,-0.1568,-0.1568,-0.1507,-0.1554,-0.1426,-0.1414,-0.1577,-0.1578,-0.158,-0.1488,0,-0.095,-0.0963,-0.0994,-0.1025,-0.1037,-0.1085,-0.1123,-0.1176,-0.1221,-0.126,-0.1309,-0.1357,-0.1419,-0.1448,-0.1497,-0.1528,-0.1533,-0.154,-0.1555,-0.1553,-0.1422,-0.1415,-0.1584,-0.1489,-0.1489,-0.1489,-0.1489,0,-0.0945,-0.0953,-0.0976,-0.1017,-0.1028,-0.106,-0.1106,-0.1153,-0.1219,-0.126,-0.1332,-0.1374,-0.1438,-0.1465,-0.1542,-0.1581,-0.158,-0.159,-0.1586,-0.1488,-0.1429,-0.1472,-0.1491,-0.1491,-0.149,-0.149,-0.149,0,-0.0907,-0.0941,-0.0955,-0.0971,-0.1028,-0.105,-0.1089,-0.1153,-0.117,-0.126,-0.1279,-0.138,-0.141,-0.1479,-0.1513,-0.1558,-0.1571,-0.1584,-0.1447,-0.1435,-0.1587,-0.1585,-0.1601,-0.1601,-0.1601,-0.1602,-0.1602,0,-0.0887,-0.0903,-0.0937,-0.0949,-0.0969,-0.1026,-0.1063,-0.1112,-0.1151,-0.1167,-0.1288,-0.1297,-0.1442,-0.1462,-0.1501,-0.1473,-0.1538,-0.1452,-0.1414,-0.1571,-0.1569,-0.1583,-0.1582,-0.1598,-0.1599,-0.16,-0.16,0,-0.0851,-0.0881,-0.0898,-0.0942,-0.0957,-0.0976,-0.1024,-0.103,-0.1111,-0.1123,-0.1147,-0.1237,-0.1284,-0.1355,-0.1407,-0.1409,-0.1395,-0.1351,-0.1474,-0.1444,-0.1251,-0.125,-0.119,-0.1185,-0.1181,-0.1177,-0.1174,0,-0.0832,-0.0836,-0.0874,-0.0871,-0.0894,-0.093,-0.0943,-0.1008,-0.1007,-0.1065,-0.1046,-0.1092,-0.1157,-0.1121,-0.1221,-0.1227,-0.1232,-0.1211,-0.1291,-0.1245,-0.1214,-0.1221,-0.1226,-0.1167,-0.1166,-0.1165,-0.1164,0,-0.079,-0.0811,-0.0818,-0.0808,-0.0816,-0.082,-0.0842,-0.0823,-0.0894,-0.0957,-0.0925,-0.0937,-0.0964,-0.1024,-0.1032,-0.1046,-0.1236,-0.1168,-0.1178,-0.1252,-0.1217,-0.1192,-0.1202,-0.1149,-0.1151,-0.1153,-0.1154,0,-0.0756,-0.0742,-0.0746,-0.0733,-0.0725,-0.069,-0.0732,-0.0721,-0.0728,-0.0793,-0.0766,-0.0842,-0.0917,-0.0921,-0.0922,-0.0934,-0.0946,-0.0961,-0.0983,-0.1,-0.0992,-0.0922,-0.0727,0,0,0,0,0,-0.0708,-0.0682,-0.0659,-0.0631,-0.061,-0.0607,-0.0637,-0.0681,-0.075,-0.0691,-0.0721,-0.0732,-0.0747,-0.0782,-0.0761,-0.0846,-0.0955,-0.082,-0.0985,-0.1067,-0.1084,-0.1098,0,0,0,0,0,0,-0.0675,-0.0658,-0.0638,-0.0539,-0.0491,-0.0463,-0.0481,-0.0531,-0.0521,-0.0598,-0.0612,-0.0674,-0.0704,-0.0731,-0.0734,-0.0747,-0.0838,-0.0861,-0.0859,-0.1058,-0.1073,-0.1087,-0.1107,0,0,0,0,0]},{"header":{"parameterUnit":"m.s-1","parameterCategory":2,"la1":30.2991,"la2":30.254,"lo1":-89.0895,"lo2":-89.0444,"dy":0.0017,"dx":0.0017,"nx":28,"ny":28,"refTime":"2024-07-02T03:00:00:Z","depth":"4","parameterNumber":3,"parameterNumberName":"V-component_of_CURRENTS"},"data":[0,0,0,0,0,0,0,0,0,0,0,0,0,0,0,0,0,0,0,0,0,0,0,0,0,0,0,0,0,0,0,0,0,0,0,0,0,0,0,0,0,0,0,0,0,0,0,0,0,0,0,0,0,0,0,0,0,0,-0.0323,-0.0323,0,-0.0322,-0.0322,-0.0322,-0.03,-0.0299,-0.0299,-0.0298,-0.0276,-0.0276,-0.0276,0,0,0,0,0,0,0,0,0,0,0,0,0,-0.0322,-0.0322,-0.0323,-0.0323,-0.0323,-0.0322,-0.0322,-0.0322,-0.03,-0.0299,-0.0298,-0.0297,-0.0276,-0.0276,-0.0276,0,0,0,0,0,0,0,0,0,0,0,0,0,-0.0324,-0.0323,-0.0323,-0.031,-0.0309,-0.0322,-0.0322,-0.0322,-0.03,-0.0299,-0.0298,-0.0297,-0.0276,-0.0276,-0.0276,-0.0301,0,0,-0.0277,-0.0277,0,0,0,0,0,0,0,0,-0.0324,-0.0324,-0.0312,-0.0311,-0.0309,-0.0308,-0.0314,-0.0313,-0.0301,-0.0306,-0.0298,-0.0296,-0.0284,-0.0284,-0.029,-0.03,-0.0299,-0.0277,-0.0277,-0.0277,-0.0277,0,0,0,0,0,0,0,-0.0324,-0.0324,-0.0325,-0.0312,-0.031,-0.0309,-0.0309,-0.0314,-0.0303,-0.0305,-0.0303,-0.03,-0.0284,-0.0289,-0.0289,-0.0298,-0.0277,-0.0277,-0.0277,-0.0278,-0.0334,-0.0336,0,0,0,0,0,0,-0.032,-0.0324,-0.0325,-0.0325,-0.0312,-0.031,-0.0309,-0.0311,-0.0303,-0.03,-0.0301,-0.0299,-0.029,-0.0289,-0.0288,-0.0334,-0.0277,-0.0278,-0.0278,-0.0333,-0.0335,-0.0336,0,0,0,0,0,0,-0.032,-0.0321,-0.0325,-0.0322,-0.0322,-0.0311,-0.0314,-0.0312,-0.0315,-0.03,-0.0297,-0.0305,-0.0289,-0.0288,-0.0303,-0.0332,-0.0278,-0.0278,-0.0331,-0.0334,-0.0335,-0.0415,0,0,0,0,0,0,-0.0321,-0.0321,-0.0331,-0.0322,-0.0322,-0.0328,-0.0315,-0.0313,-0.0313,-0.0311,-0.0302,-0.0299,-0.0288,-0.0303,-0.0303,-0.0331,-0.0278,-0.033,-0.0332,-0.0335,-0.041,-0.0419,-0.0427,0,0,0,0,0,-0.0321,-0.0327,-0.0332,-0.0332,-0.0333,-0.0329,-0.0329,-0.0318,-0.0315,-0.0317,-0.0322,-0.0299,-0.0319,-0.0304,-0.0304,-0.0333,-0.0328,-0.0332,-0.0335,-0.0407,-0.0417,-0.0427,0,0,0,0,0,0,-0.0325,-0.0325,-0.033,-0.0335,-0.0333,-0.0324,-0.0324,-0.0324,-0.0331,-0.033,-0.0319,-0.0318,-0.0342,-0.0327,-0.0311,-0.0357,-0.0319,-0.0323,-0.0374,-0.0384,-0.0392,-0.0382,-0.0278,0,0,0,0,0,-0.0335,-0.0345,-0.0339,-0.0346,-0.0342,-0.0339,-0.0339,-0.0334,-0.0334,-0.0336,-0.0341,-0.0345,-0.0358,-0.0361,-0.0366,-0.0392,-0.0352,-0.041,-0.0418,-0.0425,-0.0417,-0.0408,-0.0414,-0.0346,-0.0346,-0.0346,0,0,-0.0335,-0.0341,-0.0343,-0.0349,-0.0345,-0.0358,-0.0336,-0.0334,-0.0359,-0.0334,-0.0374,-0.0374,-0.0371,-0.0403,-0.0412,-0.0393,-0.0419,-0.0429,-0.0435,-0.0423,-0.0412,-0.0418,-0.0424,-0.0349,-0.0348,-0.0348,0,0,-0.0341,-0.0347,-0.0356,-0.0363,-0.0365,-0.0369,-0.037,-0.0373,-0.0383,-0.0418,-0.0413,-0.0436,-0.0451,-0.0465,-0.047,-0.0527,-0.0464,-0.0523,-0.0557,-0.0549,-0.0554,-0.0558,-0.0493,-0.0491,-0.0526,-0.0527,-0.0527,0,-0.0347,-0.0364,-0.0357,-0.0374,-0.0388,-0.0377,-0.0397,-0.0411,-0.0428,-0.0446,-0.0436,-0.0482,-0.0486,-0.0527,-0.0547,-0.0548,-0.0502,-0.0522,-0.0559,-0.0563,-0.0565,-0.0498,-0.0494,-0.0531,-0.053,-0.053,-0.0529,0,-0.0357,-0.0383,-0.0385,-0.0415,-0.0429,-0.0439,-0.0456,-0.0482,-0.0499,-0.0514,-0.0556,-0.0567,-0.0587,-0.0602,-0.0591,-0.0622,-0.0566,-0.0571,-0.0532,-0.0577,-0.0502,-0.0497,-0.0537,-0.0535,-0.0534,-0.0533,0,0,-0.0349,-0.0387,-0.0394,-0.0425,-0.0455,-0.0468,-0.0515,-0.0551,-0.0584,-0.0607,-0.0648,-0.0684,-0.0672,-0.0677,-0.0672,-0.067,-0.0656,-0.0625,-0.0622,-0.0555,-0.0581,-0.0489,-0.0473,-0.066,-0.066,-0.066,-0.0512,0,-0.0365,-0.0408,-0.0428,-0.0488,-0.0512,-0.0538,-0.0585,-0.0621,-0.0646,-0.0685,-0.0696,-0.0726,-0.0705,-0.0715,-0.0712,-0.0679,-0.0648,-0.0691,-0.0551,-0.0546,-0.0456,-0.0468,-0.0661,-0.0508,-0.0507,-0.0506,-0.0505,0,-0.0377,-0.0411,-0.046,-0.0539,-0.0551,-0.0591,-0.0663,-0.0703,-0.0746,-0.0764,-0.0782,-0.0774,-0.0783,-0.0759,-0.0697,-0.0717,-0.0645,-0.0607,-0.0601,-0.0482,-0.0445,-0.046,-0.0495,-0.0496,-0.0496,-0.0497,-0.0498,0,-0.0379,-0.0444,-0.049,-0.0513,-0.0586,-0.0629,-0.0674,-0.0728,-0.0762,-0.0807,-0.0818,-0.082,-0.0817,-0.0754,-0.0663,-0.0675,-0.0565,-0.058,-0.0416,-0.0406,-0.0497,-0.0495,-0.0514,-0.0514,-0.0515,-0.0515,-0.0516,0,-0.0397,-0.0443,-0.0497,-0.0527,-0.0599,-0.0645,-0.0719,-0.0764,-0.0808,-0.0836,-0.0849,-0.0847,-0.0815,-0.0745,-0.066,-0.0503,-0.0554,-0.0403,-0.037,-0.053,-0.0534,-0.0491,-0.049,-0.051,-0.0511,-0.0512,-0.0513,0,-0.0405,-0.0433,-0.0497,-0.0573,-0.0603,-0.0657,-0.0746,-0.0787,-0.0827,-0.0859,-0.0868,-0.086,-0.0764,-0.0684,-0.0575,-0.0485,-0.0364,-0.0288,-0.0418,-0.0397,-0.0202,-0.0208,-0.0095,-0.009,-0.0087,-0.0084,-0.0081,0,-0.0414,-0.044,-0.0523,-0.0561,-0.0603,-0.0682,-0.0731,-0.0796,-0.0819,-0.0847,-0.0844,-0.0782,-0.075,-0.0517,-0.0444,-0.025,-0.0225,-0.0145,-0.0215,-0.0184,-0.0163,-0.0174,-0.0184,-0.0075,-0.0074,-0.0073,-0.0072,0,-0.0437,-0.046,-0.0508,-0.0572,-0.0631,-0.0703,-0.0765,-0.0774,-0.0823,-0.085,-0.0795,-0.0704,-0.0584,-0.0462,-0.0302,-0.0175,-0.0205,-0.0106,-0.0114,-0.018,-0.016,-0.0144,-0.0159,-0.006,-0.0062,-0.0063,-0.0063,0,-0.0451,-0.0482,-0.0528,-0.0587,-0.0652,-0.07,-0.0743,-0.075,-0.0773,-0.0776,-0.0747,-0.0659,-0.0622,-0.0416,-0.0275,-0.0137,-0.0111,-0.0078,-0.0087,-0.0099,-0.0157,-0.0136,0.0014,0,0,0,0,0,-0.0462,-0.049,-0.0541,-0.0605,-0.0661,-0.0699,-0.075,-0.0775,-0.0794,-0.0737,-0.074,-0.0621,-0.0426,-0.0365,-0.0204,-0.021,-0.0092,-0.0014,-0.006,0.0011,-0.0004,-0.0065,0,0,0,0,0,0,-0.0473,-0.0517,-0.0535,-0.0595,-0.0634,-0.0701,-0.0731,-0.0748,-0.0707,-0.0708,-0.0606,-0.0564,-0.038,-0.0516,-0.0199,-0.0161,-0.016,0.0066,0.007,0.0019,0.0006,-0.0006,-0.0074,0,0,0,0,0]}]]